Flag for Gambia Weather past 2 weeks in Serekunda, Gambia

Now
81 °F

Clear.


Feels Like: 87 °F
Forecast: N/A
Wind: 8 mph from West

Location: Banjul / Yundum

Current Time: Sep 4, 2015 at 9:32:41 PM

Latest Report: Sep 4, 2015 at 9:00 PM


Visibility: 10 mi

Pressure: 29.86 "Hg

Humidity: 89%

Dew point: 77 °F

Location of SerekundaLocation

Historic Weather in Serekunda — Graph

°F

Serekunda temperature yesterday

Maximum temperature yesterday: 90 °F (at 3:00 PM)
Minimum temperature yesterday: 75 °F (at 11:00 PM)
Average temperature yesterday: 81 °F

Past Weeks' High & Low Weather Summary

 TemperatureHumidityPressure
High90 °F (Aug 24, 1:00 PM)100% (Aug 20, 11:00 PM)32.87 "Hg (Aug 20, 11:00 PM)
Low70 °F (Aug 25, 6:00 PM)26% (Aug 30, 7:00 PM)29.74 "Hg (Aug 29, 4:00 PM)
Average80 °F87%29.87 "Hg
* Reported Aug 20 8:00 PM — Sep 4 8:00 PM, Serekunda, Weather by CustomWeather, © 2015

Note: Actual official high and low records may vary slightly from our data, if they occured in-between our weather recording intervals... More about our weather records

Advertising

Serekunda weather history for previous 24 hours

 ConditionsComfort  
Time TempWeatherWind HumidityBarometerVisibility
8:00 PM
Fri, Sep 4
81 °FClear.8 mph84%29.86 "Hg10 mi
7:00 PM82 °FScattered clouds.13 mph84%29.83 "HgN/A
6:00 PM86 °FPartly sunny.14 mph75%29.86 "HgN/A
5:00 PM88 °FPartly sunny.13 mph75%29.83 "HgN/A
4:00 PM90 °FPartly sunny.10 mph67%29.86 "HgN/A
3:00 PM90 °FPartly sunny.9 mph67%29.89 "HgN/A
2:00 PM88 °FPartly sunny.7 mph75%29.86 "HgN/A
1:00 PM88 °FPartly sunny.13 mph75%29.86 "HgN/A
12:00 PM86 °FPartly sunny.10 mph79%29.89 "HgN/A
11:00 AM82 °FPartly sunny.9 mph89%29.89 "HgN/A
10:00 AM82 °FPartly sunny.13 mph84%29.89 "HgN/A
9:00 AM79 °FBroken clouds.10 mph89%29.89 "HgN/A
8:00 AM77 °FBroken clouds.7 mph94%29.86 "HgN/A
7:00 AM75 °FScattered clouds.6 mph100%29.86 "HgN/A
6:00 AM75 °FPassing clouds.No wind94%29.86 "HgN/A
5:00 AM75 °FPartly cloudy.No wind94%29.83 "HgN/A
4:00 AM75 °FPartly cloudy.No wind94%29.86 "HgN/A
3:00 AM75 °FLight rain. Partly cloudy.7 mph94%29.89 "Hg6 mi
2:00 AM73 °FPartly cloudy.9 mph100%29.89 "HgN/A
1:00 AM73 °FPartly cloudy.No wind100%29.92 "HgN/A
12:00 AM73 °FThunderstorms. Partly cloudy.7 mph100%29.92 "Hg6 mi
11:00 PM
Thu, Sep 3
75 °FThunderstorms. Passing clouds.14 mph94%29.92 "Hg6 mi
10:00 PM81 °FThunderstorms. Partly cloudy.12 mph94%29.86 "Hg6 mi
9:00 PM81 °FThunderstorms. Partly cloudy.No wind94%29.86 "Hg6 mi
Weather by CustomWeather, © 2015

See weather overviewHow to use our weather pages